Waarnemingen

Advertentie
Mijn weer
Mont-De-Marsan, Frankrijk (7607): temperatuur & dauwpunt: 17.01.2018 08:00:00 - 23.01.2018 08:00:00 (CET)Mont-De-Marsan, Frankrijk (7607): temperatuur 5cm: 17.01.2018 08:00:00 - 23.01.2018 08:00:00 (CET)Mont-De-Marsan, Frankrijk (7607): temperatuur -20cm & temperatuur -100cm: 17.01.2018 08:00:00 - 23.01.2018 08:00:00 (CET)Mont-De-Marsan, Frankrijk (7607): windsnelheid & windstoten: 17.01.2018 08:00:00 - 23.01.2018 08:00:00 (CET)Mont-De-Marsan, Frankrijk (7607): windrichting: 17.01.2018 08:00:00 - 23.01.2018 08:00:00 (CET)Mont-De-Marsan, Frankrijk (7607): luchtdruk: 17.01.2018 08:00:00 - 23.01.2018 08:00:00 (CET)Mont-De-Marsan, Frankrijk (7607): zicht: 17.01.2018 08:00:00 - 23.01.2018 08:00:00 (CET)Mont-De-Marsan, Frankrijk (7607): Zonneschijnduur: 17.01.2018 08:00:00 - 23.01.2018 08:00:00 (CET)Mont-De-Marsan, Frankrijk (7607): neerslag: 17.01.2018 08:00:00 - 23.01.2018 08:00:00 (CET)
Datum & Tijd tt [°C] td [°C] tt 5cm [°C] tt -20cm [°C] tt -100cm [°C] ff [km/u] ff [kn] fx [km/u] fx [kn] dd ppp [hPa] vv [km] sd [min] rr [mm]
23.01.2018 08:00:00 10,5 10,3 10,3 31,7 10,9 3 1 5 3 ZO 1029,1 2,1 0 0,0
23.01.2018 07:00:00 10,2 10,0 10,2 31,6 10,9 3 2 5 3 OZO 1028,8 2,9 0 0,0
23.01.2018 06:00:00 10,0 9,8 9,0 31,5 10,9 2 1 7 4 ONO 1028,7 0,3 0 0,0
23.01.2018 05:00:00 9,8 9,7 8,8 30,9 10,9 0 0 6 4 N 1028,8 0,1 0 0,0
23.01.2018 04:00:00 10,1 9,9 9,4 30,8 10,8 0 0 6 3 N 1028,9 0,2 0 0,0
23.01.2018 03:00:00 10,3 10,1 10,0 31,3 10,9 0 0 3 2 N 1029,0 0,2 0 0,0
23.01.2018 02:00:00 10,2 10,0 9,8 31,1 10,8 3 1 6 3 NW 1029,2 0,2 0 0,0
23.01.2018 01:00:00 10,4 10,2 9,8 31,4 10,9 3 1 9 5 ZZW 1029,4 0,4 0 0,0
23.01.2018 00:00:00 10,6 10,4 6,9 31,2 10,8 2 1 7 4 WZW 1029,5 4,7 0 0,0
22.01.2018 23:00:00 10,0 9,7 6,7 31,5 10,8 2 1 10 5 W 1029,5 1,0 0 0,2
22.01.2018 22:00:00 10,6 10,0 8,0 31,7 10,8 4 2 11 6 WZW 1028,9 6 0 0,0
22.01.2018 21:00:00 11,9 11,4 10,8 31,7 10,8 6 4 12 6 WZW 1029,0 23 0 0,2
22.01.2018 20:00:00 12,0 11,5 11,0 31,6 10,8 8 4 12 6 WZW 1028,8 39 0 0,2
22.01.2018 19:00:00 12,3 11,8 11,9 31,5 10,8 9 5 29 15 W 1028,2 46 0 0,2
22.01.2018 18:00:00 12,3 11,8 12,0 31,7 10,8 20 11 34 19 W 1027,5 11 0 0,2
22.01.2018 17:00:00 12,2 11,7 12,0 30,6 10,8 22 12 34 18 W 1026,9 3,3 0 0,2
22.01.2018 16:00:00 12,2 11,7 12,2 31,6 10,8 23 12 43 23 W 1026,5 3,2 0 0,2
22.01.2018 15:00:00 12,5 11,7 12,3 32,0 10,8 25 14 44 24 WZW 1026,1 2,6 0 0,2
22.01.2018 14:00:00 12,4 11,6 12,3 33,0 10,7 20 11 36 19 WZW 1026,3 3,3 0 0,0
22.01.2018 13:00:00 12,6 11,8 12,4 32,4 10,7 21 11 31 17 WZW 1026,9 5 0 0,2
22.01.2018 12:00:00 12,6 11,7 12,4 31,4 10,7 20 11 34 18 WZW 1027,5 7 0 0,0
22.01.2018 11:00:00 12,9 11,6 12,6 31,4 10,7 18 10 38 20 WZW 1027,5 17 0 0,2
22.01.2018 10:00:00 12,5 11,6 11,9 31,2 10,7 22 12 38 20 W 1027,3 18 0 0,2
22.01.2018 09:00:00 12,3 11,5 11,8 31,4 10,7 16 9 27 15 WZW 1027,0 9 0 0,0
22.01.2018 08:00:00 12,4 11,3 11,7 31,6 10,7 16 9 30 16 WZW 1026,9 18 0 0,2
22.01.2018 07:00:00 12,3 11,5 11,8 31,7 10,7 14 7 25 13 WZW 1027,0 12 0 0,0
22.01.2018 06:00:00 12,5 11,7 11,9 31,3 10,7 16 9 25 13 WZW 1026,8 10 0 0,0
22.01.2018 05:00:00 12,6 11,7 12,1 31,2 10,7 12 7 26 14 WZW 1026,9 10 0 0,0
22.01.2018 04:00:00 12,6 11,7 12,0 31,2 10,7 14 7 24 13 WZW 1027,1 20 0 0,2
22.01.2018 03:00:00 12,5 11,9 12,1 31,7 10,7 15 8 24 13 WZW 1027,3 19 0 0,2
22.01.2018 02:00:00 12,3 12,0 11,8 30,8 10,7 14 7 20 11 W 1027,3 3,8 0 0,2
22.01.2018 01:00:00 12,2 11,4 11,7 31,3 10,7 14 7 25 14 WZW 1027,7 9 0 0,2
22.01.2018 00:00:00 12,0 11,4 11,7 31,1 10,7 15 8 37 20 W 1027,9 9 0 0,0
21.01.2018 23:00:00 12,0 11,2 11,7 32,3 10,7 17 9 29 16 W 1027,8 3,6 0 0,2
21.01.2018 22:00:00 12,2 11,6 10,9 32,3 10,7 14 8 31 17 W 1028,1 7 0 0,2
21.01.2018 21:00:00 12,2 11,9 11,1 32,2 10,6 18 10 31 17 W 1027,8 2,9 0 0,2
21.01.2018 20:00:00 12,3 11,8 12,0 31,4 10,7 17 9 32 17 W 1027,9 9 0 0,0
21.01.2018 19:00:00 12,2 11,7 10,9 31,4 10,7 19 10 35 19 W 1027,6 7 0 0,0
21.01.2018 18:00:00 12,3 11,8 12,1 31,2 10,6 23 13 40 21 W 1027,3 3,5 1 0,2
21.01.2018 17:00:00 12,7 11,9 12,4 31,4 10,7 27 15 51 27 W 1027,1 60 0 0,0
21.01.2018 16:00:00 13,0 12,2 12,9 31,7 10,7 25 13 44 24 W 1026,8 5 3 0,2
21.01.2018 15:00:00 13,3 12,8 13,3 30,9 10,6 27 15 41 22 W 1026,3 11 0 0,4
21.01.2018 14:00:00 13,0 12,5 13,0 31,6 10,6 27 15 50 27 W 1026,7 2,1 0 0,4
21.01.2018 13:00:00 13,2 12,9 13,2 32,2 10,6 21 11 34 18 W 1026,6 2,3 0 0,2
21.01.2018 12:00:00 13,1 12,8 12,0 32,1 10,6 22 12 34 18 W 1026,5 2,8 0 0,2
21.01.2018 11:00:00 13,0 12,5 12,8 32,2 10,6 20 11 32 18 W 1025,9 4,8 0 0,2
21.01.2018 10:00:00 12,9 12,4 12,5 32,6 10,6 22 12 42 23 W 1025,0 10 0 0,0
21.01.2018 09:00:00 12,8 12,2 12,5 31,4 10,6 21 11 35 19 WNW 1024,8 7 0 0,2
21.01.2018 08:00:00 12,8 12,3 12,4 32,6 10,6 22 12 32 17 WNW 1023,9 17 0 0,0
21.01.2018 07:00:00 12,7 12,4 12,5 32,5 10,6 22 12 35 19 W 1023,6 4,0 0 0,2
21.01.2018 06:00:00 12,6 12,3 12,5 32,2 10,6 25 14 41 22 W 1023,3 4,0 0 0,4
21.01.2018 05:00:00 12,6 12,3 12,4 32,5 10,6 23 12 40 21 W 1023,2 2,0 0 0,2
21.01.2018 04:00:00 12,6 12,3 12,4 32,2 10,6 21 12 34 18 W 1023,3 3,7 0 0,2
21.01.2018 03:00:00 12,6 12,3 12,4 31,1 10,6 21 11 37 20 W 1023,2 3,4 0 0,6
21.01.2018 02:00:00 12,6 12,1 12,4 31,3 10,6 24 13 42 23 W 1022,7 3,4 0 0,6
21.01.2018 01:00:00 12,6 12,1 12,4 30,2 10,6 27 15 42 23 W 1022,4 3,5 0 0,6
21.01.2018 00:00:00 12,6 12,1 12,4 30,7 10,6 29 15 47 26 W 1021,8 3,9 0 0,6
20.01.2018 23:00:00 12,6 12,1 12,3 30,1 10,6 28 15 45 24 W 1021,7 4,2 0 1,0
20.01.2018 22:00:00 12,6 12,0 12,3 30,0 10,6 30 16 51 28 W 1021,5 4,5 0 1,1
20.01.2018 21:00:00 12,7 12,1 12,4 29,7 10,6 32 17 56 30 W 1021,1 6 0 1,2
20.01.2018 20:00:00 12,8 12,2 12,4 30,1 10,6 34 18 56 31 W 1020,6 4,7 0 1,6
20.01.2018 19:00:00 12,6 12,1 12,2 29,9 10,6 33 18 52 28 W 1020,0 3,8 0 1,8
20.01.2018 18:00:00 12,4 11,9 12,0 29,9 10,6 30 16 46 25 W 1019,5 2,0 0 1,6
20.01.2018 17:00:00 12,3 11,8 11,9 29,7 10,6 28 15 48 26 W 1019,1 3,2 0 2,2
20.01.2018 16:00:00 12,1 11,6 11,3 29,8 10,6 32 17 50 27 W 1018,6 2,1 0 0,8
20.01.2018 15:00:00 11,3 10,8 10,3 29,8 10,6 24 13 46 25 WZW 1018,2 2,4 0 0,8
20.01.2018 14:00:00 10,8 10,2 10,4 29,9 10,6 27 14 48 26 WZW 1018,7 1,8 0 1,2
20.01.2018 13:00:00 10,5 9,9 10,1 30,5 10,6 25 14 40 22 WZW 1019,3 5 0 1,7
20.01.2018 12:00:00 10,3 9,4 9,5 30,0 10,6 24 13 39 21 WZW 1019,9 4,4 0 2,0
20.01.2018 11:00:00 9,7 8,8 8,6 29,7 10,6 16 9 35 19 WZW 1019,8 6 0 2,8
20.01.2018 10:00:00 10,0 6,7 8,5 30,3 10,6 19 10 33 18 ZW 1019,9 13 0 0,0
20.01.2018 09:00:00 10,0 6,5 8,1 30,1 10,5 18 10 31 17 ZW 1020,1 57 0 0,0
20.01.2018 08:00:00 9,3 6,6 7,9 30,0 10,6 16 9 31 17 ZW 1020,2 60 0 0,0
20.01.2018 07:00:00 8,9 7,2 8,0 29,9 10,6 13 7 23 12 ZW 1020,8 53 0 0,0
20.01.2018 06:00:00 8,7 7,6 7,9 29,6 10,5 11 6 22 12 ZZW 1021,5 43 0 0,0
20.01.2018 05:00:00 8,4 7,3 7,5 29,6 10,5 14 7 23 12 ZZW 1022,7 14 0 0,0
20.01.2018 04:00:00 8,3 7,1 7,6 30,7 10,5 10 5 26 14 ZW 1023,6 44 0 0,0
20.01.2018 03:00:00 8,1 7,0 6,2 30,3 10,5 10 5 19 10 ZW 1024,6 43 0 0,0
20.01.2018 02:00:00 7,8 6,7 5,9 30,0 10,5 7 4 14 8 ZW 1025,0 18 0 0,0
20.01.2018 01:00:00 7,5 6,6 4,3 30,5 10,5 7 4 13 7 ZW 1025,2 11 0 0,0
20.01.2018 00:00:00 7,1 6,0 3,1 29,7 10,5 4 2 14 7 ZW 1025,7 13 0 0,0
19.01.2018 23:00:00 7,9 6,8 6,0 29,9 10,5 10 5 16 9 W 1025,4 36 0 0,0
19.01.2018 22:00:00 8,8 7,6 8,0 29,7 10,5 11 6 17 9 W 1024,7 46 0 0,0
19.01.2018 21:00:00 8,6 7,7 7,2 29,6 10,5 10 5 19 11 WZW 1024,2 57 0 0,0
19.01.2018 20:00:00 9,0 7,4 8,1 29,7 10,5 18 10 34 18 WNW 1024,1 11 0 0,4
19.01.2018 19:00:00 9,7 8,5 8,8 29,5 10,5 16 8 30 16 W 1023,1 15 0 0,4
19.01.2018 18:00:00 10,4 7,8 9,1 30,4 10,5 17 9 32 18 WZW 1022,3 13 20 0,0
19.01.2018 17:00:00 12,3 7,0 11,5 30,5 10,5 21 11 37 20 W 1021,9 59 53 0,0
19.01.2018 16:00:00 11,3 8,2 11,4 31,2 10,5 10 5 38 21 NW 1021,4 18 30 0,2
19.01.2018 15:00:00 13,0 7,7 12,7 30,8 10,5 16 9 37 20 WNW 1021,2 60 2 0,0
19.01.2018 14:00:00 13,4 7,6 14,9 30,1 10,5 17 9 35 19 WNW 1021,1 36 54 0,0
19.01.2018 13:00:00 12,6 9,2 12,0 30,8 10,5 16 9 37 20 W 1021,2 20 28 0,0
19.01.2018 12:00:00 12,1 9,5 10,7 31,5 10,5 18 10 42 23 WNW 1022,0 42 36 0,4
19.01.2018 11:00:00 11,9 10,3 10,3 31,7 10,5 16 9 26 14 WZW 1021,6 10 21 0,0
19.01.2018 10:00:00 10,6 9,8 10,0 30,6 10,5 9 5 19 10 ZW 1021,2 7 1 0,0
19.01.2018 09:00:00 10,3 9,7 9,6 30,2 10,5 11 6 24 13 WZW 1021,0 9 0 0,2
19.01.2018 08:00:00 10,3 9,7 9,8 30,8 10,5 13 7 26 14 WZW 1020,9 10 0 0,0
19.01.2018 07:00:00 10,3 9,8 8,6 30,6 10,5 11 6 19 11 W 1020,6 10 0 0,0
19.01.2018 06:00:00 10,1 9,5 9,2 29,9 10,5 8 4 22 12 WZW 1020,4 10 0 0,0
19.01.2018 05:00:00 10,4 9,8 10,1 29,8 10,5 13 7 26 14 W 1020,6 10 0 1,8
19.01.2018 04:00:00 10,9 10,4 10,2 29,9 10,5 15 8 29 16 WZW 1020,3 3,9 0 0,4
19.01.2018 03:00:00 10,4 9,9 9,8 30,8 10,5 15 8 29 16 WZW 1020,3 6 0 0,4
19.01.2018 02:00:00 10,0 9,5 9,8 30,4 10,5 15 8 27 15 ZW 1020,8 8 0 0,0
19.01.2018 01:00:00 10,0 9,5 9,8 29,5 10,5 13 7 28 15 WZW 1021,5 9 0 0,2
19.01.2018 00:00:00 10,0 9,5 9,9 29,3 10,5 16 9 27 15 ZW 1021,6 3,7 0 0,4
18.01.2018 23:00:00 10,4 9,8 10,1 29,3 10,5 16 9 29 16 ZW 1021,7 5 0 0,0
18.01.2018 22:00:00 11,0 9,3 10,8 29,9 10,5 18 10 30 16 WZW 1021,9 10 0 0,0
18.01.2018 21:00:00 10,9 9,3 10,1 29,0 10,5 16 9 31 17 WZW 1021,9 9 0 0,0
18.01.2018 20:00:00 10,9 8,8 9,7 28,8 10,5 15 8 29 16 WZW 1022,0 10 0 0,0
18.01.2018 19:00:00 10,9 8,8 10,3 27,9 10,5 15 8 25 14 WZW 1021,8 10 0 0,0
18.01.2018 18:00:00 10,9 8,8 10,5 28,2 10,5 13 7 28 15 WZW 1021,6 10 0 0,0
18.01.2018 17:00:00 11,0 8,6 11,1 28,5 10,4 19 10 32 17 WZW 1022,0 15 0 0,0
18.01.2018 16:00:00 11,4 8,3 11,6 28,7 10,5 15 8 35 19 WZW 1022,1 10 0 0,0
18.01.2018 15:00:00 11,7 7,8 12,0 29,0 10,4 16 9 35 19 WZW 1022,1 10 0 0,0
18.01.2018 14:00:00 11,8 7,7 11,9 28,7 10,4 16 9 35 19 WZW 1022,6 10 0 0,0
18.01.2018 13:00:00 11,1 7,0 11,3 27,8 10,4 16 8 26 14 WZW 1023,3 18 0 0,0
18.01.2018 12:00:00 10,6 6,7 9,4 28,3 10,4 9 5 21 11 WZW 1024,0 10 0 0,0
18.01.2018 11:00:00 9,6 5,6 8,6 27,9 10,4 11 6 23 12 WZW 1024,3 10 0 0,0
18.01.2018 10:00:00 9,2 5,2 8,0 27,5 10,4 11 6 24 13 ZW 1024,4 10 0 0,0
18.01.2018 09:00:00 8,9 5,3 7,8 27,9 10,4 9 5 16 9 ZW 1024,5 10 0 0,0
18.01.2018 08:00:00 8,8 5,4 7,7 27,8 10,4 8 4 13 7 ZW 1024,3 10 0 0,0
18.01.2018 07:00:00 8,5 5,6 7,5 27,4 10,4 8 4 13 7 ZW 1024,3 10 0 0,0
18.01.2018 06:00:00 8,3 5,9 7,5 27,7 10,4 5 3 14 8 - 1024,4 10 0 0,0
18.01.2018 05:00:00 8,1 6,2 6,7 27,7 10,4 8 4 16 9 ZW 1024,9 10 0 0,0
18.01.2018 04:00:00 8,0 6,1 6,4 28,4 10,4 8 4 18 10 ZW 1025,4 10 0 0,0
18.01.2018 03:00:00 8,2 6,3 6,8 28,2 10,4 9 5 21 11 ZW 1025,9 10 0 0,0
18.01.2018 02:00:00 7,9 6,5 6,1 28,3 10,4 11 6 20 11 ZZW 1026,4 10 0 0,0
18.01.2018 01:00:00 8,0 6,5 6,5 28,5 10,4 8 4 18 10 ZW 1026,9 10 0 0,0
18.01.2018 00:00:00 8,0 6,6 6,2 28,3 10,4 9 5 16 9 ZW 1027,2 10 0 0,0
17.01.2018 23:00:00 7,8 6,6 6,4 28,5 10,4 5 3 20 11 ZZW 1027,4 10 0 0,6
17.01.2018 22:00:00 8,2 5,8 6,9 28,3 10,4 5 3 13 7 WZW 1027,8 10 0 0,0
17.01.2018 21:00:00 8,3 5,9 6,7 28,4 10,4 5 3 15 8 - 1028,0 10 0 0,0
17.01.2018 20:00:00 8,0 6,0 3,7 28,7 10,4 8 4 13 7 ZW 1028,0 10 0 0,0
17.01.2018 19:00:00 8,2 6,0 4,6 28,7 10,3 8 4 12 6 WZW 1027,7 10 0 0,0
17.01.2018 18:00:00 9,0 6,4 7,2 28,8 10,3 9 5 16 9 W 1027,4 10 7 0,0
17.01.2018 17:00:00 9,3 6,7 8,1 29,6 10,3 16 9 26 14 W 1027,3 10 18 0,0
17.01.2018 16:00:00 9,6 7,2 8,9 29,2 10,3 16 9 35 19 W 1026,9 10 16 0,2
17.01.2018 15:00:00 12,0 6,7 10,7 29,7 10,3 21 11 33 18 W 1026,6 10 17 0,0
17.01.2018 14:00:00 11,2 7,3 8,1 29,2 10,3 18 10 41 22 W 1027,1 10 29 0,8
17.01.2018 13:00:00 10,6 6,5 9,3 28,8 10,3 21 11 39 21 WNW 1027,4 10 45 0,0
17.01.2018 12:00:00 10,5 7,4 9,1 27,8 10,3 21 11 33 18 W 1027,6 20 23 0,0
17.01.2018 11:00:00 9,3 7,2 8,1 27,2 10,3 16 9 40 22 W 1027,5 10 14 0,4
17.01.2018 10:00:00 8,8 7,1 7,1 26,9 10,3 11 6 21 11 WZW 1026,5 10 2 0,0
17.01.2018 09:00:00 8,4 6,4 7,3 27,1 10,3 21 11 33 18 W 1025,3 10 0 0,0
17.01.2018 08:00:00 8,5 7,1 7,6 26,7 10,3 13 7 41 22 W 1024,7 10 0 0,2

tt = temperatuur
td = dauwpunt
tt 5cm = temperatuur 5cm
tt -20cm = temperatuur -20cm
tt -100cm = temperatuur -100cm
ff = windsnelheid
fx = windstoten
dd = windrichting
ppp = luchtdruk
vv = zicht
sd = Zonneschijnduur
rr = neerslag

Weerstations in de omgeving